Time,TemperatureF,DewpointF,PressureIn,WindDirection,WindDirectionDegrees,WindSpeedMPH,WindSpeedGustMPH,Humidity,HourlyPrecipIn,Conditions,Clouds,dailyrainin,SoftwareType,DateUTC
2013-08-25 00:01:00,67.1,53.2,30.26,SE,126,0.0,0.0,61,0.00,CLR,,0.00,WeatherDisplay:10.37,2013-08-25 04:01:00,
2013-08-25 00:02:00,67.1,53.2,30.26,SE,126,0.0,0.0,61,0.00,CLR,,0.00,WeatherDisplay:10.37,2013-08-25 04:02:00,
2013-08-25 00:07:00,66.9,53.0,30.27,SE,126,0.0,0.0,61,0.00,CLR,,0.00,WeatherDisplay:10.37,2013-08-25 04:07:00,
2013-08-25 00:12:00,66.8,52.9,30.26,SE,126,0.0,0.0,61,0.00,CLR,,0.00,WeatherDisplay:10.37,2013-08-25 04:12:00,
2013-08-25 00:17:00,66.3,52.4,30.26,SE,126,0.0,0.0,61,0.00,CLR,,0.00,WeatherDisplay:10.37,2013-08-25 04:17:00,
2013-08-25 00:22:00,66.0,52.2,30.26,SE,126,0.0,0.0,61,0.00,CLR,,0.00,WeatherDisplay:10.37,2013-08-25 04:22:00,
2013-08-25 00:27:00,65.6,51.8,30.26,SE,126,0.0,0.0,61,0.00,CLR,,0.00,WeatherDisplay:10.37,2013-08-25 04:27:00,
2013-08-25 00:32:00,65.2,51.4,30.26,SE,126,0.0,0.0,61,0.00,CLR,,0.00,WeatherDisplay:10.37,2013-08-25 04:32:00,
2013-08-25 00:37:00,64.8,51.0,30.26,SE,126,0.0,0.0,61,0.00,CLR,,0.00,WeatherDisplay:10.37,2013-08-25 04:37:00,
2013-08-25 00:42:00,64.7,50.9,30.26,SE,126,0.0,0.0,61,0.00,CLR,,0.00,WeatherDisplay:10.37,2013-08-25 04:42:00,
2013-08-25 00:47:00,64.3,50.6,30.26,SE,126,0.0,0.0,61,0.00,CLR,,0.00,WeatherDisplay:10.37,2013-08-25 04:47:00,
2013-08-25 00:52:00,64.3,50.6,30.26,SE,126,0.0,0.0,61,0.00,CLR,,0.00,WeatherDisplay:10.37,2013-08-25 04:52:00,
2013-08-25 00:57:00,64.3,50.6,30.26,SE,126,0.0,0.0,61,0.00,CLR,,0.00,WeatherDisplay:10.37,2013-08-25 04:57:00,
2013-08-25 01:02:00,64.3,50.6,30.26,SE,126,0.0,0.0,61,0.00,CLR,,0.00,WeatherDisplay:10.37,2013-08-25 05:02:00,
2013-08-25 01:07:00,64.3,50.6,30.26,SE,126,0.0,0.0,61,0.00,CLR,,0.00,WeatherDisplay:10.37,2013-08-25 05:07:00,
2013-08-25 01:12:00,64.3,50.6,30.26,SE,126,0.0,0.0,61,0.00,CLR,,0.00,WeatherDisplay:10.37,2013-08-25 05:12:00,
2013-08-25 01:17:00,64.3,50.6,30.26,SE,126,0.0,0.0,61,0.00,CLR,,0.00,WeatherDisplay:10.37,2013-08-25 05:17:00,
2013-08-25 01:22:00,64.2,50.5,30.26,SE,126,0.0,0.0,61,0.00,CLR,,0.00,WeatherDisplay:10.37,2013-08-25 05:22:00,
2013-08-25 01:27:00,64.2,59.6,30.26,SE,126,0.0,0.0,85,0.00,CLR,,0.00,WeatherDisplay:10.37,2013-08-25 05:27:00,
2013-08-25 01:32:00,63.9,59.3,30.26,SE,126,0.0,0.0,85,0.00,CLR,,0.00,WeatherDisplay:10.37,2013-08-25 05:32:00,
2013-08-25 01:37:00,63.9,59.3,30.26,SE,126,0.0,0.0,85,0.00,CLR,,0.00,WeatherDisplay:10.37,2013-08-25 05:37:00,
2013-08-25 01:42:00,63.4,58.8,30.26,SE,126,0.0,0.0,85,0.00,CLR,,0.00,WeatherDisplay:10.37,2013-08-25 05:42:00,
2013-08-25 01:47:00,63.4,58.8,30.26,SE,126,0.0,0.0,85,0.00,CLR,,0.00,WeatherDisplay:10.37,2013-08-25 05:47:00,
2013-08-25 01:52:00,63.1,58.5,30.26,SE,126,0.0,0.0,85,0.00,CLR,,0.00,WeatherDisplay:10.37,2013-08-25 05:52:00,
2013-08-25 01:57:00,62.9,58.3,30.26,SE,126,0.0,0.0,85,0.00,CLR,,0.00,WeatherDisplay:10.37,2013-08-25 05:57:00,
2013-08-25 02:02:00,62.9,59.9,30.26,SE,126,0.0,0.0,90,0.00,CLR,,0.00,WeatherDisplay:10.37,2013-08-25 06:02:00,
2013-08-25 02:07:00,62.6,59.9,30.26,SE,126,0.0,0.0,91,0.00,CLR,,0.00,WeatherDisplay:10.37,2013-08-25 06:07:00,
2013-08-25 02:12:00,62.6,59.9,30.26,SE,126,0.0,0.0,91,0.00,CLR,,0.00,WeatherDisplay:10.37,2013-08-25 06:12:00,
2013-08-25 02:17:00,62.4,60.0,30.26,SE,126,0.0,0.0,92,0.00,CLR,,0.00,WeatherDisplay:10.37,2013-08-25 06:17:00,
2013-08-25 02:22:00,62.4,60.0,30.26,SE,126,0.0,0.0,92,0.00,CLR,,0.00,WeatherDisplay:10.37,2013-08-25 06:22:00,
2013-08-25 02:27:00,62.4,60.0,30.26,SE,126,0.0,0.0,92,0.00,CLR,,0.00,WeatherDisplay:10.37,2013-08-25 06:27:00,
2013-08-25 02:32:00,62.4,60.3,30.26,SE,126,0.0,0.0,93,0.00,CLR,,0.00,WeatherDisplay:10.37,2013-08-25 06:32:00,
2013-08-25 02:37:00,62.4,60.7,30.26,SE,126,0.0,0.0,94,0.00,CLR,,0.00,WeatherDisplay:10.37,2013-08-25 06:37:00,
2013-08-25 02:42:00,62.6,60.8,30.26,SE,126,0.0,0.0,94,0.00,CLR,,0.00,WeatherDisplay:10.37,2013-08-25 06:42:00,
2013-08-25 02:47:00,62.3,60.8,30.25,SE,126,0.0,0.0,95,0.00,CLR,,0.00,WeatherDisplay:10.37,2013-08-25 06:47:00,
2013-08-25 02:52:00,62.1,60.7,30.25,SE,126,0.0,0.0,95,0.00,CLR,,0.00,WeatherDisplay:10.37,2013-08-25 06:52:00,
2013-08-25 02:57:00,62.0,60.8,30.25,SE,126,0.0,0.0,96,0.00,CLR,,0.00,WeatherDisplay:10.37,2013-08-25 06:57:00,
2013-08-25 03:02:00,62.0,60.8,30.25,SE,126,0.0,0.0,96,0.00,CLR,,0.00,WeatherDisplay:10.37,2013-08-25 07:02:00,
2013-08-25 03:07:00,61.8,60.6,30.25,SE,126,0.0,0.0,96,0.00,CLR,,0.00,WeatherDisplay:10.37,2013-08-25 07:07:00,
2013-08-25 03:12:00,61.8,60.6,30.25,SE,126,0.0,0.0,96,0.00,CLR,,0.00,WeatherDisplay:10.37,2013-08-25 07:12:00,
2013-08-25 03:17:00,61.8,60.6,30.25,SE,126,0.0,0.0,96,0.00,CLR,,0.00,WeatherDisplay:10.37,2013-08-25 07:17:00,
2013-08-25 03:22:00,61.8,60.6,30.25,SE,126,0.0,0.0,96,0.00,CLR,,0.00,WeatherDisplay:10.37,2013-08-25 07:22:00,
2013-08-25 03:27:00,61.8,60.6,30.26,SE,126,0.0,0.0,96,0.00,CLR,,0.00,WeatherDisplay:10.37,2013-08-25 07:27:00,
2013-08-25 03:33:00,61.6,60.4,30.25,SE,126,0.0,0.0,96,0.00,CLR,,0.00,WeatherDisplay:10.37,2013-08-25 07:33:00,
2013-08-25 03:38:00,61.6,60.7,30.26,SE,126,0.0,0.0,97,0.00,CLR,,0.00,WeatherDisplay:10.37,2013-08-25 07:38:00,
2013-08-25 03:43:00,61.5,60.6,30.26,SE,126,0.0,0.0,97,0.00,CLR,,0.00,WeatherDisplay:10.37,2013-08-25 07:43:00,
2013-08-25 03:48:00,61.3,60.4,30.26,SE,126,0.0,0.0,97,0.00,CLR,,0.00,WeatherDisplay:10.37,2013-08-25 07:48:00,
2013-08-25 03:53:00,61.3,60.7,30.26,SE,126,0.0,0.0,98,0.00,CLR,,0.00,WeatherDisplay:10.37,2013-08-25 07:53:00,
2013-08-25 03:58:00,61.3,60.7,30.26,SE,126,0.0,0.0,98,0.00,CLR,,0.00,WeatherDisplay:10.37,2013-08-25 07:58:00,
2013-08-25 04:03:00,61.2,60.6,30.26,SE,126,0.0,0.0,98,0.00,CLR,,0.00,WeatherDisplay:10.37,2013-08-25 08:03:00,
2013-08-25 04:08:00,61.0,60.4,30.26,SE,126,0.0,0.0,98,0.00,CLR,,0.00,WeatherDisplay:10.37,2013-08-25 08:08:00,
2013-08-25 04:13:00,61.0,60.4,30.27,SE,126,0.0,0.0,98,0.00,CLR,,0.00,WeatherDisplay:10.37,2013-08-25 08:13:00,
2013-08-25 04:18:00,61.0,60.4,30.27,SE,126,0.0,0.0,98,0.00,CLR,,0.00,WeatherDisplay:10.37,2013-08-25 08:18:00,
2013-08-25 04:23:00,61.2,60.6,30.27,SE,126,0.0,0.0,98,0.00,CLR,,0.00,WeatherDisplay:10.37,2013-08-25 08:23:00,
2013-08-25 04:28:00,61.0,60.4,30.27,SE,126,0.0,0.0,98,0.00,CLR,,0.00,WeatherDisplay:10.37,2013-08-25 08:28:00,
2013-08-25 04:33:00,61.0,60.4,30.27,SE,126,0.0,0.0,98,0.00,CLR,,0.00,WeatherDisplay:10.37,2013-08-25 08:33:00,
2013-08-25 04:38:00,61.0,60.4,30.27,SE,126,0.0,0.0,98,0.00,CLR,,0.00,WeatherDisplay:10.37,2013-08-25 08:38:00,
2013-08-25 04:43:00,60.9,60.3,30.28,SE,126,0.0,0.0,98,0.00,CLR,,0.00,WeatherDisplay:10.37,2013-08-25 08:43:00,
2013-08-25 04:48:00,61.0,60.4,30.28,SE,126,0.0,0.0,98,0.00,CLR,,0.00,WeatherDisplay:10.37,2013-08-25 08:48:00,
2013-08-25 04:53:00,61.0,60.4,30.28,SE,126,0.0,0.0,98,0.00,CLR,,0.00,WeatherDisplay:10.37,2013-08-25 08:53:00,
2013-08-25 04:58:00,61.0,60.4,30.28,SE,126,0.0,0.0,98,0.00,CLR,,0.00,WeatherDisplay:10.37,2013-08-25 08:58:00,
2013-08-25 05:03:00,61.0,60.7,30.28,SE,126,0.0,0.0,99,0.00,CLR,,0.00,WeatherDisplay:10.37,2013-08-25 09:03:00,
2013-08-25 05:08:00,61.0,60.7,30.28,SE,126,0.0,0.0,99,0.00,CLR,,0.00,WeatherDisplay:10.37,2013-08-25 09:08:00,
2013-08-25 05:13:00,61.0,60.7,30.28,SE,126,0.0,0.0,99,0.00,CLR,,0.00,WeatherDisplay:10.37,2013-08-25 09:13:00,
2013-08-25 05:18:00,61.0,60.7,30.29,SE,126,0.0,0.0,99,0.00,CLR,,0.00,WeatherDisplay:10.37,2013-08-25 09:18:00,
2013-08-25 05:23:00,60.7,60.4,30.29,SE,126,0.0,0.0,99,0.00,CLR,,0.00,WeatherDisplay:10.37,2013-08-25 09:23:00,
2013-08-25 05:28:00,60.7,60.4,30.29,SE,126,0.0,0.0,99,0.00,CLR,,0.00,WeatherDisplay:10.37,2013-08-25 09:28:00,
2013-08-25 05:33:00,60.5,60.2,30.29,SE,126,0.0,0.0,99,0.00,CLR,,0.00,WeatherDisplay:10.37,2013-08-25 09:33:00,
2013-08-25 05:38:00,60.4,60.1,30.29,SE,126,0.0,0.0,99,0.00,CLR,,0.00,WeatherDisplay:10.37,2013-08-25 09:38:00,
2013-08-25 05:43:00,60.4,60.1,30.30,SE,126,0.0,0.0,99,0.00,CLR,,0.00,WeatherDisplay:10.37,2013-08-25 09:43:00,
2013-08-25 05:48:00,60.4,60.1,30.30,SE,126,0.0,0.0,99,0.00,CLR,,0.00,WeatherDisplay:10.37,2013-08-25 09:48:00,
2013-08-25 05:53:00,60.2,59.9,30.30,SE,126,0.0,0.0,99,0.00,CLR,,0.00,WeatherDisplay:10.37,2013-08-25 09:53:00,
2013-08-25 05:58:00,60.4,60.1,30.30,SE,126,0.0,0.0,99,0.00,CLR,,0.00,WeatherDisplay:10.37,2013-08-25 09:58:00,
2013-08-25 06:03:00,60.2,59.9,30.30,SE,126,0.0,0.0,99,0.00,CLR,,0.00,WeatherDisplay:10.37,2013-08-25 10:03:00,
2013-08-25 06:08:00,60.2,59.9,30.31,SE,126,0.0,0.0,99,0.00,CLR,,0.00,WeatherDisplay:10.37,2013-08-25 10:08:00,
2013-08-25 06:13:00,60.1,59.8,30.31,SE,126,0.0,0.0,99,0.00,CLR,,0.00,WeatherDisplay:10.37,2013-08-25 10:13:00,
2013-08-25 06:18:00,60.1,59.8,30.31,SE,126,0.0,0.0,99,0.00,CLR,,0.00,WeatherDisplay:10.37,2013-08-25 10:18:00,
2013-08-25 06:23:00,60.2,59.9,30.32,SE,126,0.0,0.0,99,0.00,CLR,,0.00,WeatherDisplay:10.37,2013-08-25 10:23:00,
2013-08-25 06:28:00,60.4,60.1,30.32,SE,126,0.0,0.0,99,0.00,CLR,,0.00,WeatherDisplay:10.37,2013-08-25 10:28:00,
2013-08-25 06:33:00,60.2,59.9,30.32,SE,126,0.0,0.0,99,0.00,CLR,,0.00,WeatherDisplay:10.37,2013-08-25 10:33:00,
2013-08-25 06:38:00,60.1,59.8,30.32,SE,127,0.0,0.0,99,0.00,CLR,,0.00,WeatherDisplay:10.37,2013-08-25 10:38:00,
2013-08-25 06:43:00,60.1,60.1,30.32,SE,127,0.0,0.0,100,0.00,CLR,,0.00,WeatherDisplay:10.37,2013-08-25 10:43:00,
2013-08-25 06:48:00,59.9,59.9,30.32,SE,127,0.0,0.0,100,0.00,CLR,,0.00,WeatherDisplay:10.37,2013-08-25 10:48:00,
2013-08-25 06:53:00,59.9,59.9,30.32,SE,127,0.0,0.0,100,0.00,CLR,,0.00,WeatherDisplay:10.37,2013-08-25 10:53:00,
2013-08-25 06:58:00,59.9,59.9,30.32,SE,127,0.0,0.0,100,0.00,CLR,,0.00,WeatherDisplay:10.37,2013-08-25 10:58:00,
2013-08-25 07:03:00,60.1,60.1,30.33,SE,127,0.0,0.0,100,0.00,CLR,,0.00,WeatherDisplay:10.37,2013-08-25 11:03:00,
2013-08-25 07:08:00,60.1,60.1,30.33,SE,127,0.0,0.0,100,0.00,CLR,,0.00,WeatherDisplay:10.37,2013-08-25 11:08:00,
2013-08-25 07:13:00,60.4,60.4,30.33,SE,127,0.0,0.0,100,0.00,CLR,,0.00,WeatherDisplay:10.37,2013-08-25 11:13:00,
2013-08-25 07:18:00,60.4,60.4,30.33,SE,127,0.0,0.0,100,0.00,CLR,,0.00,WeatherDisplay:10.37,2013-08-25 11:18:00,
2013-08-25 07:23:00,60.4,60.4,30.33,SE,127,0.0,0.0,100,0.00,CLR,,0.00,WeatherDisplay:10.37,2013-08-25 11:23:00,
2013-08-25 07:28:00,60.7,60.7,30.33,SE,127,0.0,0.0,100,0.00,CLR,,0.00,WeatherDisplay:10.37,2013-08-25 11:28:00,
2013-08-25 07:33:00,61.0,61.0,30.33,SE,127,0.0,0.0,100,0.00,CLR,,0.00,WeatherDisplay:10.37,2013-08-25 11:33:00,
2013-08-25 07:38:00,61.3,61.3,30.33,SE,127,0.0,0.0,100,0.00,CLR,,0.00,WeatherDisplay:10.37,2013-08-25 11:38:00,
2013-08-25 07:43:00,61.6,61.6,30.33,SE,127,0.0,0.0,100,0.00,CLR,,0.00,WeatherDisplay:10.37,2013-08-25 11:43:00,
2013-08-25 07:48:00,62.0,62.0,30.33,SE,127,0.0,0.0,100,0.00,CLR,,0.00,WeatherDisplay:10.37,2013-08-25 11:48:00,
2013-08-25 07:53:00,62.4,62.4,30.33,SE,127,0.0,0.0,100,0.00,CLR,,0.00,WeatherDisplay:10.37,2013-08-25 11:53:00,
2013-08-25 07:58:00,62.9,62.9,30.33,SE,127,0.0,0.0,100,0.00,CLR,,0.00,WeatherDisplay:10.37,2013-08-25 11:58:00,
2013-08-25 08:03:00,63.2,63.2,30.33,SE,127,0.0,0.0,100,0.00,CLR,,0.00,WeatherDisplay:10.37,2013-08-25 12:03:00,
2013-08-25 08:08:00,63.5,63.5,30.33,SE,127,0.0,0.0,100,0.00,CLR,,0.00,WeatherDisplay:10.37,2013-08-25 12:08:00,
2013-08-25 08:13:00,64.0,64.0,30.34,SE,127,0.0,0.0,100,0.00,CLR,,0.00,WeatherDisplay:10.37,2013-08-25 12:13:00,
2013-08-25 08:18:00,64.7,64.7,30.34,SE,127,0.0,0.0,100,0.00,CLR,,0.00,WeatherDisplay:10.37,2013-08-25 12:18:00,
2013-08-25 08:23:00,65.3,65.3,30.34,SE,127,0.0,0.0,100,0.00,CLR,,0.00,WeatherDisplay:10.37,2013-08-25 12:23:00,
2013-08-25 08:28:00,65.8,65.8,30.34,SE,127,0.0,0.0,100,0.00,CLR,,0.00,WeatherDisplay:10.37,2013-08-25 12:28:00,
2013-08-25 08:33:00,66.1,66.1,30.34,SE,127,0.0,0.0,100,0.00,CLR,,0.00,WeatherDisplay:10.37,2013-08-25 12:33:00,
2013-08-25 08:38:00,66.6,66.6,30.34,ESE,119,0.0,0.0,100,0.00,CLR,,0.00,WeatherDisplay:10.37,2013-08-25 12:38:00,
2013-08-25 08:43:00,66.8,66.8,30.34,ESE,120,0.0,0.0,100,0.00,CLR,,0.00,WeatherDisplay:10.37,2013-08-25 12:43:00,
2013-08-25 08:48:00,67.3,67.3,30.34,ESE,120,0.0,0.0,100,0.00,CLR,,0.00,WeatherDisplay:10.37,2013-08-25 12:48:00,
2013-08-25 08:53:00,67.6,67.6,30.34,ESE,120,0.0,0.0,100,0.00,CLR,,0.00,WeatherDisplay:10.37,2013-08-25 12:53:00,
2013-08-25 08:58:00,67.6,67.6,30.34,ESE,120,0.0,0.0,100,0.00,CLR,,0.00,WeatherDisplay:10.37,2013-08-25 12:58:00,
2013-08-25 09:03:00,67.6,67.6,30.34,ESE,120,0.0,0.0,100,0.00,CLR,,0.00,WeatherDisplay:10.37,2013-08-25 13:03:00,
2013-08-25 09:08:00,67.8,67.8,30.34,ESE,120,0.0,0.0,100,0.00,CLR,,0.00,WeatherDisplay:10.37,2013-08-25 13:08:00,
2013-08-25 09:13:00,67.6,67.6,30.34,ESE,120,0.0,0.0,100,0.00,CLR,,0.00,WeatherDisplay:10.37,2013-08-25 13:13:00,
2013-08-25 09:18:00,67.6,67.6,30.34,ESE,120,0.0,0.0,100,0.00,CLR,,0.00,WeatherDisplay:10.37,2013-08-25 13:18:00,
2013-08-25 09:23:00,67.9,67.9,30.34,ESE,120,0.0,0.0,100,0.00,CLR,,0.00,WeatherDisplay:10.37,2013-08-25 13:23:00,
2013-08-25 09:28:00,68.6,68.6,30.34,ESE,120,0.0,0.0,100,0.00,CLR,,0.00,WeatherDisplay:10.37,2013-08-25 13:28:00,
2013-08-25 09:33:00,68.9,68.9,30.34,ESE,120,0.0,0.0,100,0.00,CLR,,0.00,WeatherDisplay:10.37,2013-08-25 13:33:00,
2013-08-25 09:38:00,69.9,69.9,30.34,ESE,120,0.0,0.0,100,0.00,CLR,,0.00,WeatherDisplay:10.37,2013-08-25 13:38:00,
2013-08-25 09:43:00,70.6,61.1,30.34,ESE,120,0.0,0.0,72,0.00,CLR,,0.00,WeatherDisplay:10.37,2013-08-25 13:43:00,
2013-08-25 09:48:00,71.1,60.8,30.34,ESE,120,0.0,0.0,70,0.00,CLR,,0.00,WeatherDisplay:10.37,2013-08-25 13:48:00,
2013-08-25 09:53:00,71.5,60.8,30.34,ESE,120,0.0,0.0,69,0.00,CLR,,0.00,WeatherDisplay:10.37,2013-08-25 13:53:00,
2013-08-25 09:58:00,72.0,60.9,30.34,ESE,120,0.0,0.0,68,0.00,CLR,,0.00,WeatherDisplay:10.37,2013-08-25 13:58:00,
2013-08-25 10:03:00,72.1,61.0,30.34,ESE,120,0.0,0.0,68,0.00,CLR,,0.00,WeatherDisplay:10.37,2013-08-25 14:03:00,
2013-08-25 10:08:00,72.7,61.5,30.34,ESE,120,0.0,0.0,68,0.00,CLR,,0.00,WeatherDisplay:10.37,2013-08-25 14:08:00,
2013-08-25 10:13:00,73.0,61.4,30.34,ESE,120,0.0,0.0,67,0.00,CLR,,0.00,WeatherDisplay:10.37,2013-08-25 14:13:00,
2013-08-25 10:18:00,73.3,61.7,30.34,ESE,120,0.0,0.0,67,0.00,CLR,,0.00,WeatherDisplay:10.37,2013-08-25 14:18:00,
2013-08-25 10:23:00,73.3,61.3,30.34,ESE,120,0.0,0.0,66,0.00,CLR,,0.00,WeatherDisplay:10.37,2013-08-25 14:23:00,
2013-08-25 10:28:00,73.3,60.4,30.34,ESE,120,0.0,0.0,64,0.00,CLR,,0.00,WeatherDisplay:10.37,2013-08-25 14:28:00,
2013-08-25 10:33:00,73.5,59.7,30.34,ESE,120,0.0,0.0,62,0.00,CLR,,0.00,WeatherDisplay:10.37,2013-08-25 14:33:00,
2013-08-25 10:38:00,73.7,59.9,30.34,ESE,120,0.0,0.0,62,0.00,CLR,,0.00,WeatherDisplay:10.37,2013-08-25 14:38:00,
2013-08-25 10:43:00,74.2,59.9,30.34,ESE,120,0.0,0.0,61,0.00,CLR,,0.00,WeatherDisplay:10.37,2013-08-25 14:43:00,
2013-08-25 10:48:00,74.6,57.9,30.34,ESE,120,0.0,0.0,56,0.00,CLR,,0.00,WeatherDisplay:10.37,2013-08-25 14:48:00,
2013-08-25 10:53:00,74.6,57.9,30.34,ESE,120,0.0,0.0,56,0.00,CLR,,0.00,WeatherDisplay:10.37,2013-08-25 14:53:00,
2013-08-25 10:58:00,74.4,57.7,30.34,ESE,119,0.0,0.0,56,0.00,CLR,,0.00,WeatherDisplay:10.37,2013-08-25 14:58:00,
2013-08-25 11:03:00,74.0,56.8,30.33,ESE,119,0.0,0.0,55,0.00,CLR,,0.00,WeatherDisplay:10.37,2013-08-25 15:03:00,
2013-08-25 11:08:00,74.2,58.5,30.33,ESE,119,0.0,0.0,58,0.00,CLR,,0.00,WeatherDisplay:10.37,2013-08-25 15:08:00,
2013-08-25 11:13:00,74.4,57.7,30.33,ESE,119,0.0,0.0,56,0.00,CLR,,0.00,WeatherDisplay:10.37,2013-08-25 15:13:00,
2013-08-25 11:18:00,74.4,57.7,30.33,ESE,119,0.0,0.0,56,0.00,CLR,,0.00,WeatherDisplay:10.37,2013-08-25 15:18:00,
2013-08-25 11:23:00,75.1,54.6,30.33,ESE,119,0.0,0.0,49,0.00,CLR,,0.00,WeatherDisplay:10.37,2013-08-25 15:23:00,
2013-08-25 11:28:00,75.4,56.0,30.33,ESE,119,0.0,0.0,51,0.00,CLR,,0.00,WeatherDisplay:10.37,2013-08-25 15:28:00,
2013-08-25 11:33:00,75.4,56.5,30.33,ESE,119,0.0,0.0,52,0.00,CLR,,0.00,WeatherDisplay:10.37,2013-08-25 15:33:00,
2013-08-25 11:38:00,75.3,53.7,30.33,ESE,119,0.0,0.0,47,0.00,CLR,,0.00,WeatherDisplay:10.37,2013-08-25 15:38:00,
2013-08-25 11:43:00,75.3,54.3,30.33,ESE,110,0.0,0.0,48,0.00,CLR,,0.00,WeatherDisplay:10.37,2013-08-25 15:43:00,
2013-08-25 11:48:00,75.4,54.3,30.33,East,100,0.0,0.0,48,0.00,CLR,,0.00,WeatherDisplay:10.37,2013-08-25 15:48:00,
2013-08-25 11:53:00,75.3,54.3,30.32,East,100,0.0,0.0,48,0.00,CLR,,0.00,WeatherDisplay:10.37,2013-08-25 15:53:00,
2013-08-25 11:58:00,75.1,54.1,30.32,East,100,0.0,0.0,48,0.00,CLR,,0.00,WeatherDisplay:10.37,2013-08-25 15:58:00,
2013-08-25 12:03:00,75.1,54.1,30.32,East,100,0.0,0.0,48,0.00,CLR,,0.00,WeatherDisplay:10.37,2013-08-25 16:03:00,
2013-08-25 12:08:00,75.1,54.1,30.32,East,85,0.0,0.0,48,0.00,CLR,,0.00,WeatherDisplay:10.37,2013-08-25 16:08:00,
2013-08-25 12:13:00,75.3,54.3,30.32,East,90,0.0,0.0,48,0.00,CLR,,0.00,WeatherDisplay:10.37,2013-08-25 16:13:00,
2013-08-25 12:18:00,75.4,54.3,30.32,ENE,71,0.0,0.0,48,0.00,CLR,,0.00,WeatherDisplay:10.37,2013-08-25 16:18:00,
2013-08-25 12:23:00,75.6,54.5,30.32,ENE,73,0.0,0.0,48,0.00,CLR,,0.00,WeatherDisplay:10.37,2013-08-25 16:23:00,
2013-08-25 12:28:00,75.6,54.5,30.32,East,86,0.0,0.0,48,0.00,CLR,,0.00,WeatherDisplay:10.37,2013-08-25 16:28:00,
2013-08-25 12:33:00,76.0,54.9,30.32,East,88,0.0,0.0,48,0.00,CLR,,0.00,WeatherDisplay:10.37,2013-08-25 16:33:00,
2013-08-25 12:38:00,75.4,54.3,30.32,East,88,0.0,0.0,48,0.00,CLR,,0.00,WeatherDisplay:10.37,2013-08-25 16:38:00,
2013-08-25 12:43:00,75.3,54.3,30.32,East,90,0.0,0.0,48,0.00,CLR,,0.00,WeatherDisplay:10.37,2013-08-25 16:43:00,
2013-08-25 12:48:00,75.4,54.3,30.32,East,92,0.0,0.0,48,0.00,CLR,,0.00,WeatherDisplay:10.37,2013-08-25 16:48:00,
2013-08-25 12:53:00,75.8,54.7,30.31,East,92,0.0,0.0,48,0.00,CLR,,0.00,WeatherDisplay:10.37,2013-08-25 16:53:00,
2013-08-25 12:58:00,76.1,55.0,30.31,East,93,0.0,0.0,48,0.00,CLR,,0.00,WeatherDisplay:10.37,2013-08-25 16:58:00,
2013-08-25 13:03:00,76.1,50.7,30.31,East,95,0.0,0.0,41,0.00,CLR,,0.00,WeatherDisplay:10.37,2013-08-25 17:03:00,
2013-08-25 13:08:00,76.1,47.9,30.31,East,85,0.0,0.0,37,0.00,CLR,,0.00,WeatherDisplay:10.37,2013-08-25 17:08:00,
2013-08-25 13:13:00,76.5,48.3,30.31,East,97,0.0,0.0,37,0.00,CLR,,0.00,WeatherDisplay:10.37,2013-08-25 17:13:00,
2013-08-25 13:18:00,76.3,51.5,30.31,East,97,0.0,0.0,42,0.00,CLR,,0.00,WeatherDisplay:10.37,2013-08-25 17:18:00,
2013-08-25 13:23:00,76.3,52.2,30.31,ESE,107,0.0,0.0,43,0.00,CLR,,0.00,WeatherDisplay:10.37,2013-08-25 17:23:00,
2013-08-25 13:28:00,77.0,52.8,30.31,ESE,112,0.0,0.0,43,0.00,CLR,,0.00,WeatherDisplay:10.37,2013-08-25 17:28:00,
2013-08-25 13:33:00,77.0,50.1,30.30,SSE,162,0.0,0.0,39,0.00,CLR,,0.00,WeatherDisplay:10.37,2013-08-25 17:33:00,
2013-08-25 13:38:00,77.0,48.7,30.30,SSE,155,0.0,0.0,37,0.00,CLR,,0.00,WeatherDisplay:10.37,2013-08-25 17:38:00,
2013-08-25 13:43:00,77.0,49.4,30.31,East,97,0.0,0.0,38,0.00,CLR,,0.00,WeatherDisplay:10.37,2013-08-25 17:43:00,
2013-08-25 13:48:00,77.0,49.4,30.30,SE,143,0.0,0.0,38,0.00,CLR,,0.00,WeatherDisplay:10.37,2013-08-25 17:48:00,
2013-08-25 13:53:00,77.0,49.4,30.30,East,86,0.0,0.0,38,0.00,CLR,,0.00,WeatherDisplay:10.37,2013-08-25 17:53:00,
2013-08-25 13:58:00,77.0,49.4,30.30,East,96,0.0,0.0,38,0.00,CLR,,0.00,WeatherDisplay:10.37,2013-08-25 17:58:00,
2013-08-25 14:03:00,77.0,49.4,30.30,ESE,102,0.0,0.0,38,0.00,CLR,,0.00,WeatherDisplay:10.37,2013-08-25 18:03:00,
2013-08-25 14:08:00,77.0,49.4,30.29,East,93,0.0,0.0,38,0.00,CLR,,0.00,WeatherDisplay:10.37,2013-08-25 18:08:00,
2013-08-25 14:13:00,76.3,48.8,30.29,East,96,0.0,0.0,38,0.00,CLR,,0.00,WeatherDisplay:10.37,2013-08-25 18:13:00,
2013-08-25 14:18:00,76.3,48.8,30.28,ENE,66,0.0,0.0,38,0.00,CLR,,0.00,WeatherDisplay:10.37,2013-08-25 18:18:00,
2013-08-25 14:23:00,76.5,49.0,30.28,East,85,0.0,0.0,38,0.00,CLR,,0.00,WeatherDisplay:10.37,2013-08-25 18:23:00,
2013-08-25 14:28:00,76.5,49.0,30.28,East,85,0.0,0.0,38,0.00,CLR,,0.00,WeatherDisplay:10.37,2013-08-25 18:28:00,
2013-08-25 14:33:00,76.3,48.8,30.29,East,92,0.0,0.0,38,0.00,CLR,,0.00,WeatherDisplay:10.37,2013-08-25 18:33:00,
2013-08-25 14:38:00,76.5,51.0,30.29,East,82,0.0,0.0,41,0.00,CLR,,0.00,WeatherDisplay:10.37,2013-08-25 18:38:00,
2013-08-25 14:43:00,76.7,51.2,30.28,East,92,0.0,0.0,41,0.00,CLR,,0.00,WeatherDisplay:10.37,2013-08-25 18:43:00,
2013-08-25 14:48:00,76.7,51.2,30.28,East,90,0.0,0.0,41,0.00,CLR,,0.00,WeatherDisplay:10.37,2013-08-25 18:48:00,
2013-08-25 14:53:00,76.8,50.6,30.28,East,80,0.0,0.0,40,0.00,CLR,,0.00,WeatherDisplay:10.37,2013-08-25 18:53:00,
2013-08-25 14:58:00,76.8,52.6,30.28,East,80,0.0,0.0,43,0.00,CLR,,0.00,WeatherDisplay:10.37,2013-08-25 18:58:00,
2013-08-25 15:03:00,77.0,50.8,30.28,East,100,0.0,0.0,40,0.00,CLR,,0.00,WeatherDisplay:10.37,2013-08-25 19:03:00,
2013-08-25 15:08:00,77.2,51.7,30.27,East,90,0.0,0.0,41,0.00,CLR,,0.00,WeatherDisplay:10.37,2013-08-25 19:08:00,
2013-08-25 15:13:00,77.2,50.3,30.27,East,90,0.0,0.0,39,0.00,CLR,,0.00,WeatherDisplay:10.37,2013-08-25 19:13:00,
2013-08-25 15:18:00,77.6,50.7,30.27,East,90,0.0,0.0,39,0.00,CLR,,0.00,WeatherDisplay:10.37,2013-08-25 19:18:00,
2013-08-25 15:23:00,78.6,51.6,30.27,South,172,0.0,0.0,39,0.00,CLR,,0.00,WeatherDisplay:10.37,2013-08-25 19:23:00,
2013-08-25 15:28:00,79.8,52.6,30.27,South,172,0.0,0.0,39,0.00,CLR,,0.00,WeatherDisplay:10.37,2013-08-25 19:28:00,
2013-08-25 15:33:00,79.6,46.3,30.26,East,86,0.0,0.0,31,0.00,CLR,,0.00,WeatherDisplay:10.37,2013-08-25 19:33:00,
2013-08-25 15:38:00,79.8,46.5,30.27,East,88,0.0,0.0,31,0.00,CLR,,0.00,WeatherDisplay:10.37,2013-08-25 19:38:00,
2013-08-25 15:43:00,79.4,49.4,30.26,East,90,0.0,0.0,35,0.00,CLR,,0.00,WeatherDisplay:10.37,2013-08-25 19:43:00,
2013-08-25 15:48:00,78.8,48.8,30.26,ESE,103,0.0,0.0,35,0.00,CLR,,0.00,WeatherDisplay:10.37,2013-08-25 19:48:00,
2013-08-25 15:53:00,79.0,49.0,30.26,SSE,154,0.0,0.0,35,0.00,CLR,,0.00,WeatherDisplay:10.37,2013-08-25 19:53:00,
2013-08-25 15:58:00,79.2,49.2,30.27,SE,145,0.0,0.0,35,0.00,CLR,,0.00,WeatherDisplay:10.37,2013-08-25 19:58:00,
2013-08-25 16:03:00,79.6,49.5,30.26,SE,145,0.0,0.0,35,0.00,CLR,,0.00,WeatherDisplay:10.37,2013-08-25 20:03:00,
2013-08-25 16:08:00,80.1,50.0,30.26,SE,145,0.0,0.0,35,0.00,CLR,,0.00,WeatherDisplay:10.37,2013-08-25 20:08:00,
2013-08-25 16:13:00,79.6,49.5,30.26,SE,141,0.0,0.0,35,0.00,CLR,,0.00,WeatherDisplay:10.37,2013-08-25 20:13:00,
2013-08-25 16:18:00,79.2,49.2,30.26,SE,140,0.0,0.0,35,0.00,CLR,,0.00,WeatherDisplay:10.37,2013-08-25 20:18:00,
2013-08-25 16:23:00,78.6,48.7,30.26,ESE,120,0.0,0.0,35,0.00,CLR,,0.00,WeatherDisplay:10.37,2013-08-25 20:23:00,
2013-08-25 16:28:00,78.1,48.2,30.26,ESE,120,0.0,0.0,35,0.00,CLR,,0.00,WeatherDisplay:10.37,2013-08-25 20:28:00,
2013-08-25 16:33:00,77.4,47.6,30.25,ESE,117,0.0,0.0,35,0.00,CLR,,0.00,WeatherDisplay:10.37,2013-08-25 20:33:00,
2013-08-25 16:38:00,77.2,47.4,30.25,ESE,116,0.0,0.0,35,0.00,CLR,,0.00,WeatherDisplay:10.37,2013-08-25 20:38:00,
2013-08-25 16:43:00,77.4,51.9,30.25,ESE,117,0.0,0.0,41,0.00,CLR,,0.00,WeatherDisplay:10.37,2013-08-25 20:43:00,
2013-08-25 16:48:00,77.9,52.3,30.25,ESE,117,0.0,0.0,41,0.00,CLR,,0.00,WeatherDisplay:10.37,2013-08-25 20:48:00,
2013-08-25 16:53:00,78.3,50.6,30.25,SSW,208,0.0,0.0,38,0.00,CLR,,0.00,WeatherDisplay:10.37,2013-08-25 20:53:00,
2013-08-25 16:58:00,78.6,51.6,30.25,South,181,0.0,0.0,39,0.00,CLR,,0.00,WeatherDisplay:10.37,2013-08-25 20:58:00,
2013-08-25 17:03:00,78.5,50.8,30.25,East,90,0.0,0.0,38,0.00,CLR,,0.00,WeatherDisplay:10.37,2013-08-25 21:03:00,
2013-08-25 17:08:00,78.6,50.9,30.25,SE,127,0.0,0.0,38,0.00,CLR,,0.00,WeatherDisplay:10.37,2013-08-25 21:08:00,
2013-08-25 17:13:00,78.5,50.8,30.25,South,189,0.0,0.0,38,0.00,CLR,,0.00,WeatherDisplay:10.37,2013-08-25 21:13:00,
2013-08-25 17:18:00,78.8,51.0,30.24,SE,138,0.0,0.0,38,0.00,CLR,,0.00,WeatherDisplay:10.37,2013-08-25 21:18:00,
2013-08-25 17:23:00,78.5,50.8,30.24,SSW,196,0.0,0.0,38,0.00,CLR,,0.00,WeatherDisplay:10.37,2013-08-25 21:23:00,
2013-08-25 17:28:00,78.3,50.6,30.24,ESE,106,0.0,0.0,38,0.00,CLR,,0.00,WeatherDisplay:10.37,2013-08-25 21:28:00,
2013-08-25 17:33:00,78.1,50.4,30.24,SE,136,0.0,0.0,38,0.00,CLR,,0.00,WeatherDisplay:10.37,2013-08-25 21:33:00,
2013-08-25 17:38:00,77.9,50.2,30.24,SSW,208,0.0,0.0,38,0.00,CLR,,0.00,WeatherDisplay:10.37,2013-08-25 21:38:00,
2013-08-25 17:43:00,77.7,50.1,30.24,SE,144,0.0,0.0,38,0.00,CLR,,0.00,WeatherDisplay:10.37,2013-08-25 21:43:00,
2013-08-25 17:48:00,77.7,50.1,30.23,SE,130,0.0,0.0,38,0.00,CLR,,0.00,WeatherDisplay:10.37,2013-08-25 21:48:00,
2013-08-25 17:53:00,77.2,49.6,30.23,South,186,0.0,0.0,38,0.00,CLR,,0.00,WeatherDisplay:10.37,2013-08-25 21:53:00,
2013-08-25 17:58:00,77.2,49.6,30.23,SSW,212,0.0,0.0,38,0.00,CLR,,0.00,WeatherDisplay:10.37,2013-08-25 21:58:00,
2013-08-25 18:03:00,77.0,49.4,30.23,ESE,123,0.0,0.0,38,0.00,CLR,,0.00,WeatherDisplay:10.37,2013-08-25 22:03:00,
2013-08-25 18:08:00,77.2,49.6,30.23,SSE,165,0.0,0.0,38,0.00,CLR,,0.00,WeatherDisplay:10.37,2013-08-25 22:08:00,
2013-08-25 18:13:00,77.2,49.6,30.23,ESE,106,0.0,0.0,38,0.00,CLR,,0.00,WeatherDisplay:10.37,2013-08-25 22:13:00,
2013-08-25 18:18:00,77.0,46.5,30.22,SSE,157,0.0,0.0,34,0.00,CLR,,0.00,WeatherDisplay:10.37,2013-08-25 22:18:00,
2013-08-25 18:23:00,76.7,46.2,30.22,SSW,209,0.0,0.0,34,0.00,CLR,,0.00,WeatherDisplay:10.37,2013-08-25 22:23:00,
2013-08-25 18:28:00,76.1,50.0,30.22,SW,219,0.0,0.0,40,0.00,CLR,,0.00,WeatherDisplay:10.37,2013-08-25 22:28:00,
2013-08-25 18:33:00,75.8,51.1,30.22,South,185,0.0,0.0,42,0.00,CLR,,0.00,WeatherDisplay:10.37,2013-08-25 22:33:00,
2013-08-25 18:38:00,75.6,51.5,30.22,South,186,0.0,0.0,43,0.00,CLR,,0.00,WeatherDisplay:10.37,2013-08-25 22:38:00,
2013-08-25 18:43:00,75.8,52.3,30.22,ESE,114,0.0,0.0,44,0.00,CLR,,0.00,WeatherDisplay:10.37,2013-08-25 22:43:00,
2013-08-25 18:48:00,75.8,52.9,30.22,ESE,109,0.0,0.0,45,0.00,CLR,,0.00,WeatherDisplay:10.37,2013-08-25 22:48:00,
2013-08-25 18:53:00,75.6,52.8,30.21,ESE,112,0.0,0.0,45,0.00,CLR,,0.00,WeatherDisplay:10.37,2013-08-25 22:53:00,
2013-08-25 18:58:00,75.3,53.7,30.22,SSE,148,0.0,0.0,47,0.00,CLR,,0.00,WeatherDisplay:10.37,2013-08-25 22:58:00,
2013-08-25 19:03:00,75.3,54.3,30.22,SSE,147,0.0,0.0,48,0.00,CLR,,0.00,WeatherDisplay:10.37,2013-08-25 23:03:00,
2013-08-25 19:08:00,75.3,54.3,30.22,SSE,147,0.0,0.0,48,0.00,CLR,,0.00,WeatherDisplay:10.37,2013-08-25 23:08:00,
2013-08-25 19:13:00,75.3,54.3,30.21,SSE,147,0.0,0.0,48,0.00,CLR,,0.00,WeatherDisplay:10.37,2013-08-25 23:13:00,
2013-08-25 19:18:00,75.3,54.3,30.22,SSE,147,0.0,0.0,48,0.00,CLR,,0.00,WeatherDisplay:10.37,2013-08-25 23:18:00,
2013-08-25 19:23:00,75.3,54.3,30.22,SSE,147,0.0,0.0,48,0.00,CLR,,0.00,WeatherDisplay:10.37,2013-08-25 23:23:00,
2013-08-25 19:28:00,75.3,54.3,30.22,SSE,147,0.0,0.0,48,0.00,CLR,,0.00,WeatherDisplay:10.37,2013-08-25 23:28:00,
2013-08-25 19:33:00,73.2,52.3,30.21,SSE,147,0.0,0.0,48,0.00,CLR,,0.00,WeatherDisplay:10.37,2013-08-25 23:33:00,
2013-08-25 19:38:00,72.8,52.0,30.22,SSE,147,0.0,0.0,48,0.00,CLR,,0.00,WeatherDisplay:10.37,2013-08-25 23:38:00,
2013-08-25 19:43:00,72.5,51.7,30.21,SSE,147,0.0,0.0,48,0.00,CLR,,0.00,WeatherDisplay:10.37,2013-08-25 23:43:00,
2013-08-25 19:48:00,72.1,51.3,30.21,SSE,147,0.0,0.0,48,0.00,CLR,,0.00,WeatherDisplay:10.37,2013-08-25 23:48:00,
2013-08-25 19:53:00,71.6,50.9,30.21,SSE,147,0.0,0.0,48,0.00,CLR,,0.00,WeatherDisplay:10.37,2013-08-25 23:53:00,
2013-08-25 19:58:00,71.3,50.6,30.20,SSE,147,0.0,0.0,48,0.00,CLR,,0.00,WeatherDisplay:10.37,2013-08-25 23:58:00,
2013-08-25 20:03:00,70.9,55.9,30.21,SSE,147,0.0,0.0,59,0.00,CLR,,0.00,WeatherDisplay:10.37,2013-08-26 00:03:00,
2013-08-25 20:08:00,70.4,55.4,30.20,SSE,147,0.0,0.0,59,0.00,CLR,,0.00,WeatherDisplay:10.37,2013-08-26 00:08:00,
2013-08-25 20:13:00,70.1,55.6,30.20,SSE,148,0.0,0.0,60,0.00,CLR,,0.00,WeatherDisplay:10.37,2013-08-26 00:13:00,
2013-08-25 20:18:00,69.8,56.2,30.20,South,186,0.0,0.0,62,0.00,CLR,,0.00,WeatherDisplay:10.37,2013-08-26 00:18:00,
2013-08-25 20:23:00,69.6,56.0,30.20,South,186,0.0,0.0,62,0.00,CLR,,0.00,WeatherDisplay:10.37,2013-08-26 00:23:00,
2013-08-25 20:28:00,69.4,56.3,30.21,South,186,0.0,0.0,63,0.00,CLR,,0.00,WeatherDisplay:10.37,2013-08-26 00:28:00,
2013-08-25 20:33:00,69.3,57.0,30.21,South,186,0.0,0.0,65,0.00,CLR,,0.00,WeatherDisplay:10.37,2013-08-26 00:33:00,
2013-08-25 20:38:00,68.9,57.1,30.22,South,186,0.0,0.0,66,0.00,CLR,,0.00,WeatherDisplay:10.37,2013-08-26 00:38:00,
2013-08-25 20:43:00,68.8,57.4,30.22,South,186,0.0,0.0,67,0.00,CLR,,0.00,WeatherDisplay:10.37,2013-08-26 00:43:00,
2013-08-25 20:48:00,68.4,57.4,30.22,South,186,0.0,0.0,68,0.00,CLR,,0.00,WeatherDisplay:10.37,2013-08-26 00:48:00,
2013-08-25 20:53:00,68.1,57.1,30.22,South,186,0.0,0.0,68,0.00,CLR,,0.00,WeatherDisplay:10.37,2013-08-26 00:53:00,
2013-08-25 20:58:00,67.8,57.3,30.22,South,186,0.0,0.0,69,0.00,CLR,,0.00,WeatherDisplay:10.37,2013-08-26 00:58:00,
2013-08-25 21:03:00,67.6,57.5,30.21,South,186,0.0,0.0,70,0.00,CLR,,0.00,WeatherDisplay:10.37,2013-08-26 01:03:00,
2013-08-25 21:08:00,67.4,57.7,30.22,South,186,0.0,0.0,71,0.00,CLR,,0.00,WeatherDisplay:10.37,2013-08-26 01:08:00,
2013-08-25 21:13:00,67.1,57.4,30.22,South,186,0.0,0.0,71,0.00,CLR,,0.00,WeatherDisplay:10.37,2013-08-26 01:13:00,
2013-08-25 21:18:00,66.8,57.5,30.22,South,186,0.0,0.0,72,0.00,CLR,,0.00,WeatherDisplay:10.37,2013-08-26 01:18:00,
2013-08-25 21:23:00,66.6,57.7,30.22,South,186,0.0,0.0,73,0.00,CLR,,0.00,WeatherDisplay:10.37,2013-08-26 01:23:00,
2013-08-25 21:28:00,66.4,57.5,30.22,South,186,0.0,0.0,73,0.00,CLR,,0.00,WeatherDisplay:10.37,2013-08-26 01:28:00,
2013-08-25 21:33:00,66.3,57.8,30.22,South,186,0.0,0.0,74,0.00,CLR,,0.00,WeatherDisplay:10.37,2013-08-26 01:33:00,
2013-08-25 21:38:00,66.1,57.6,30.22,South,186,0.0,0.0,74,0.00,CLR,,0.00,WeatherDisplay:10.37,2013-08-26 01:38:00,
2013-08-25 21:43:00,66.0,57.5,30.22,South,186,0.0,0.0,74,0.00,CLR,,0.00,WeatherDisplay:10.37,2013-08-26 01:43:00,
2013-08-25 21:48:00,65.8,57.7,30.22,South,186,0.0,0.0,75,0.00,CLR,,0.00,WeatherDisplay:10.37,2013-08-26 01:48:00,
2013-08-25 21:53:00,65.6,57.8,30.22,South,186,0.0,0.0,76,0.00,CLR,,0.00,WeatherDisplay:10.37,2013-08-26 01:53:00,
2013-08-25 21:58:00,65.5,57.7,30.22,South,186,0.0,0.0,76,0.00,CLR,,0.00,WeatherDisplay:10.37,2013-08-26 01:58:00,
2013-08-25 22:03:00,65.3,57.5,30.22,South,186,0.0,0.0,76,0.00,CLR,,0.00,WeatherDisplay:10.37,2013-08-26 02:03:00,
2013-08-25 22:08:00,65.2,57.4,30.22,South,186,0.0,0.0,76,0.00,CLR,,0.00,WeatherDisplay:10.37,2013-08-26 02:08:00,
2013-08-25 22:13:00,65.0,57.6,30.22,South,186,0.0,0.0,77,0.00,CLR,,0.00,WeatherDisplay:10.37,2013-08-26 02:13:00,
2013-08-25 22:18:00,64.7,57.7,30.22,South,186,0.0,0.0,78,0.00,CLR,,0.00,WeatherDisplay:10.37,2013-08-26 02:18:00,
2013-08-25 22:23:00,64.5,57.8,30.22,South,186,0.0,0.0,79,0.00,CLR,,0.00,WeatherDisplay:10.37,2013-08-26 02:23:00,
2013-08-25 22:28:00,64.3,57.6,30.23,South,186,0.0,0.0,79,0.00,CLR,,0.00,WeatherDisplay:10.37,2013-08-26 02:28:00,
2013-08-25 22:33:00,64.2,57.9,30.23,South,186,0.0,0.0,80,0.00,CLR,,0.00,WeatherDisplay:10.37,2013-08-26 02:33:00,
2013-08-25 22:38:00,63.9,57.6,30.22,South,186,0.0,0.0,80,0.00,CLR,,0.00,WeatherDisplay:10.37,2013-08-26 02:38:00,
2013-08-25 22:43:00,63.7,57.8,30.23,South,186,0.0,0.0,81,0.00,CLR,,0.00,WeatherDisplay:10.37,2013-08-26 02:43:00,
2013-08-25 22:48:00,63.5,57.6,30.23,South,186,0.0,0.0,81,0.00,CLR,,0.00,WeatherDisplay:10.37,2013-08-26 02:48:00,
2013-08-25 22:53:00,63.4,57.5,30.23,South,186,0.0,0.0,81,0.00,CLR,,0.00,WeatherDisplay:10.37,2013-08-26 02:53:00,
2013-08-25 22:58:00,63.2,57.6,30.23,South,186,0.0,0.0,82,0.00,CLR,,0.00,WeatherDisplay:10.37,2013-08-26 02:58:00,
2013-08-25 23:03:00,63.2,57.6,30.24,South,186,0.0,0.0,82,0.00,CLR,,0.00,WeatherDisplay:10.37,2013-08-26 03:03:00,
2013-08-25 23:08:00,63.1,57.5,30.23,South,186,0.0,0.0,82,0.00,CLR,,0.00,WeatherDisplay:10.37,2013-08-26 03:08:00,
2013-08-25 23:13:00,62.9,57.3,30.23,South,186,0.0,0.0,82,0.00,CLR,,0.00,WeatherDisplay:10.37,2013-08-26 03:13:00,
2013-08-25 23:18:00,62.7,57.1,30.23,South,186,0.0,0.0,82,0.00,CLR,,0.00,WeatherDisplay:10.37,2013-08-26 03:18:00,
2013-08-25 23:23:00,62.6,57.0,30.23,South,186,0.0,0.0,82,0.00,CLR,,0.00,WeatherDisplay:10.37,2013-08-26 03:23:00,
2013-08-25 23:28:00,62.4,56.8,30.23,South,186,0.0,0.0,82,0.00,CLR,,0.00,WeatherDisplay:10.37,2013-08-26 03:28:00,
2013-08-25 23:33:00,62.4,56.8,30.23,South,186,0.0,0.0,82,0.00,CLR,,0.00,WeatherDisplay:10.37,2013-08-26 03:33:00,
2013-08-25 23:38:00,62.4,56.8,30.23,South,186,0.0,0.0,82,0.00,CLR,,0.00,WeatherDisplay:10.37,2013-08-26 03:38:00,
2013-08-25 23:43:00,62.4,56.8,30.23,South,186,0.0,0.0,82,0.00,CLR,,0.00,WeatherDisplay:10.37,2013-08-26 03:43:00,
2013-08-25 23:48:00,62.4,56.8,30.23,South,186,0.0,0.0,82,0.00,CLR,,0.00,WeatherDisplay:10.37,2013-08-26 03:48:00,
2013-08-25 23:53:00,62.4,56.8,30.23,South,186,0.0,0.0,82,0.00,CLR,,0.00,WeatherDisplay:10.37,2013-08-26 03:53:00,
2013-08-25 23:58:00,62.4,57.8,30.23,South,186,0.0,0.0,85,0.00,CLR,,0.00,WeatherDisplay:10.37,2013-08-26 03:58:00,